• In Lithuania
  • List of Countries
  • For 7 days
  • Water Temperature
  • Satellite Maps
  • Weather Map
  • Weather Widgets
  • user-avatar
    Login

    Hourly Weather Guarda

    Today, 14 August, Tuesday

    Time Temperature Precipitation Wind Pressure Humidity
    00:00 +16°C° 0 mm 1 mps 688 mmHg 74%
    01:00 +16°C° 0 mm 1 mps 688 mmHg 75%
    02:00 +16°C° 0 mm 2 mps 688 mmHg 76%
    03:00 +15°C° 0 mm 2 mps 688 mmHg 76%
    04:00 +15°C° 0 mm 2 mps 688 mmHg 78%
    05:00 +15°C° 0 mm 2 mps 689 mmHg 79%
    06:00 +15°C° 0 mm 2 mps 689 mmHg 79%
    07:00 +17°C° 0 mm 2 mps 689 mmHg 70%
    08:00 +20°C° 0 mm 3 mps 690 mmHg 60%
    09:00 +22°C° 0 mm 3 mps 691 mmHg 51%
    10:00 +26°C° 0 mm 3 mps 691 mmHg 44%
    11:00 +28°C° 0 mm 3 mps 691 mmHg 36%
    12:00 +30°C° 0 mm 3 mps 692 mmHg 29%
    13:00 +31°C° 0 mm 3 mps 692 mmHg 26%
    14:00 +32°C° 0 mm 2 mps 691 mmHg 23%
    15:00 +34°C° 0 mm 2 mps 691 mmHg 21%
    16:00 +34°C° 0 mm 3 mps 691 mmHg 21%
    17:00 +33°C° 0 mm 3 mps 691 mmHg 22%
    18:00 +31°C° 0 mm 3 mps 690 mmHg 23%
    19:00 +29°C° 0 mm 3 mps 690 mmHg 27%
    20:00 +26°C° 0 mm 3 mps 690 mmHg 32%
    21:00 +24°C° 0 mm 2 mps 690 mmHg 37%
    22:00 +23°C° 0 mm 2 mps 690 mmHg 38%
    23:00 +21°C° 0 mm 2 mps 690 mmHg 40%

    Tomorrow, 15 August, Wednesday

    Time Temperature Precipitation Wind Pressure Humidity
    00:00 +20°C° 0 mm 2 mps 690 mmHg 42%
    01:00 +20°C° 0 mm 3 mps 689 mmHg 45%
    02:00 +19°C° 0 mm 3 mps 689 mmHg 48%
    03:00 +18°C° 0 mm 3 mps 689 mmHg 51%
    04:00 +18°C° 0 mm 3 mps 689 mmHg 53%
    05:00 +17°C° 0 mm 3 mps 688 mmHg 56%
    06:00 +16°C° 0 mm 3 mps 688 mmHg 58%
    07:00 +19°C° 0 mm 2 mps 689 mmHg 52%
    08:00 +21°C° 0 mm 2 mps 690 mmHg 45%
    09:00 +25°C° 0 mm 2 mps 690 mmHg 38%
    10:00 +27°C° 0 mm 2 mps 690 mmHg 33%
    11:00 +30°C° 0 mm 1 mps 691 mmHg 27%
    12:00 +32°C° 0 mm 1 mps 691 mmHg 22%
    13:00 +33°C° 0 mm 1 mps 691 mmHg 21%
    14:00 +34°C° 0 mm 2 mps 690 mmHg 20%
    15:00 +35°C° 0 mm 2 mps 690 mmHg 18%
    16:00 +34°C° 0 mm 2 mps 690 mmHg 20%
    17:00 +32°C° 0 mm 2 mps 689 mmHg 21%
    18:00 +31°C° 0 mm 3 mps 689 mmHg 23%
    19:00 +29°C° 0 mm 2 mps 689 mmHg 29%
    20:00 +26°C° 0 mm 2 mps 689 mmHg 34%
    21:00 +24°C° 0 mm 2 mps 689 mmHg 40%
    22:00 +23°C° 0 mm 2 mps 688 mmHg 43%
    23:00 +22°C° 0 mm 1 mps 688 mmHg 46%

    Day after tomorrow, 16 August, Thursday

    Time Temperature Precipitation Wind Pressure Humidity
    00:00 +21°C° 0 mm 1 mps 688 mmHg 49%
    01:00 +21°C° 0 mm 1 mps 688 mmHg 50%
    02:00 +21°C° 0 mm 1 mps 688 mmHg 52%
    03:00 +20°C° 0 mm 1 mps 688 mmHg 54%
    04:00 +20°C° 0 mm 1 mps 688 mmHg 56%
    05:00 +19°C° 0 mm 1 mps 688 mmHg 58%
    06:00 +19°C° 0 mm 1 mps 688 mmHg 60%
    07:00 +22°C° 0 mm 1 mps 688 mmHg 52%
    08:00 +24°C° 0 mm 1 mps 689 mmHg 45%
    09:00 +27°C° 0 mm 1 mps 690 mmHg 37%
    10:00 +29°C° 0 mm 1 mps 690 mmHg 33%
    11:00 +31°C° 0 mm 2 mps 690 mmHg 29%
    12:00 +32°C° 0 mm 2 mps 690 mmHg 24%
    13:00 +34°C° 0 mm 2 mps 690 mmHg 24%
    14:00 +34°C° 0 mm 3 mps 690 mmHg 23%
    15:00 +34°C° 0 mm 3 mps 689 mmHg 22%
    16:00 +33°C° 0 mm 4 mps 689 mmHg 25%
    17:00 +32°C° 0 mm 4 mps 689 mmHg 27%
    18:00 +30°C° 0 mm 4 mps 689 mmHg 29%
    19:00 +28°C° 0 mm 3 mps 689 mmHg 37%
    20:00 +25°C° 0 mm 3 mps 689 mmHg 44%
    21:00 +22°C° 0 mm 3 mps 689 mmHg 52%
    22:00 +21°C° 0 mm 3 mps 689 mmHg 56%
    23:00 +20°C° 0 mm 3 mps 689 mmHg 59%

    17 August, Friday

    Time Temperature Precipitation Wind Pressure Humidity
    00:00 +20°C° 0 mm 3 mps 689 mmHg 63%
    01:00 +19°C° 0 mm 3 mps 689 mmHg 65%
    02:00 +19°C° 0 mm 3 mps 689 mmHg 67%
    03:00 +18°C° 0 mm 3 mps 688 mmHg 69%
    04:00 +18°C° 0 mm 3 mps 688 mmHg 71%
    05:00 +17°C° 0 mm 4 mps 688 mmHg 72%
    06:00 +17°C° 0 mm 4 mps 688 mmHg 73%
    07:00 +19°C° 0 mm 4 mps 689 mmHg 66%
    08:00 +20°C° 0 mm 4 mps 690 mmHg 58%
    09:00 +22°C° 0 mm 5 mps 690 mmHg 51%
    10:00 +26°C° 0 mm 4 mps 690 mmHg 45%
    11:00 +28°C° 0 mm 4 mps 691 mmHg 39%
    12:00 +30°C° 0 mm 3 mps 691 mmHg 33%
    13:00 +31°C° 0 mm 3 mps 691 mmHg 30%
    14:00 +33°C° 0 mm 3 mps 690 mmHg 27%
    15:00 +32°C° 0 mm 2 mps 690 mmHg 24%
    16:00 +33°C° 0 mm 3 mps 690 mmHg 25%
    17:00 +31°C° 0 mm 3 mps 690 mmHg 26%
    18:00 +32°C° 0 mm 4 mps 690 mmHg 27%
    19:00 +29°C° 0 mm 4 mps 690 mmHg 32%
    20:00 +26°C° 0 mm 5 mps 690 mmHg 37%
    21:00 +23°C° 0 mm 5 mps 690 mmHg 43%
    22:00 +22°C° 0 mm 5 mps 690 mmHg 45%
    23:00 +21°C° 0 mm 5 mps 690 mmHg 48%

    18 August, Saturday

    Time Temperature Precipitation Wind Pressure Humidity
    00:00 +20°C° 0 mm 4 mps 690 mmHg 51%
    01:00 +19°C° 0 mm 4 mps 689 mmHg 53%
    02:00 +18°C° 0 mm 4 mps 689 mmHg 55%
    03:00 +17°C° 0 mm 4 mps 689 mmHg 57%
    04:00 +17°C° 0 mm 4 mps 689 mmHg 59%
    05:00 +15°C° 0 mm 4 mps 689 mmHg 61%
    06:00 +14°C° 0 mm 4 mps 689 mmHg 63%
    07:00 +17°C° 0 mm 4 mps 690 mmHg 58%
    08:00 +19°C° 0 mm 4 mps 690 mmHg 52%
    09:00 +21°C° 0 mm 4 mps 691 mmHg 47%
    10:00 +23°C° 0 mm 4 mps 691 mmHg 41%
    11:00 +27°C° 0 mm 4 mps 691 mmHg 36%
    12:00 +29°C° 0 mm 3 mps 691 mmHg 30%
    13:00 +31°C° 0 mm 3 mps 691 mmHg 27%
    14:00 +32°C° 0 mm 2 mps 691 mmHg 24%
    15:00 +34°C° 0 mm 2 mps 691 mmHg 21%
    16:00 +32°C° 0 mm 2 mps 690 mmHg 21%
    17:00 +32°C° 0 mm 2 mps 690 mmHg 22%
    18:00 +31°C° 0 mm 3 mps 690 mmHg 22%
    19:00 +29°C° 0 mm 3 mps 690 mmHg 24%
    20:00 +27°C° 0 mm 2 mps 690 mmHg 27%
    21:00 +24°C° 0 mm 2 mps 690 mmHg 29%
    22:00 +23°C° 0 mm 2 mps 690 mmHg 31%
    23:00 +23°C° 0 mm 2 mps 690 mmHg 32%

    19 August, Sunday

    Time Temperature Precipitation Wind Pressure Humidity
    00:00 +21°C° 0 mm 2 mps 690 mmHg 34%
    01:00 +20°C° 0 mm 2 mps 689 mmHg 38%
    02:00 +19°C° 0 mm 3 mps 689 mmHg 41%
    03:00 +19°C° 0 mm 3 mps 689 mmHg 45%
    04:00 +18°C° 0 mm 2 mps 689 mmHg 49%
    05:00 +18°C° 0 mm 2 mps 689 mmHg 53%
    06:00 +17°C° 0 mm 2 mps 689 mmHg 57%
    07:00 +19°C° 0 mm 2 mps 690 mmHg 51%
    08:00 +23°C° 0 mm 2 mps 690 mmHg 46%
    09:00 +25°C° 0 mm 2 mps 691 mmHg 40%
    10:00 +28°C° 0 mm 2 mps 691 mmHg 36%
    11:00 +30°C° 0 mm 2 mps 692 mmHg 31%
    12:00 +34°C° 0 mm 2 mps 692 mmHg 26%
    13:00 +34°C° 0 mm 2 mps 692 mmHg 24%
    14:00 +35°C° 0 mm 2 mps 692 mmHg 22%
    15:00 +35°C° 0 mm 1 mps 691 mmHg 20%
    16:00 +35°C° 0 mm 2 mps 691 mmHg 22%
    17:00 +34°C° 0 mm 2 mps 691 mmHg 23%
    18:00 +32°C° 0 mm 2 mps 691 mmHg 24%
    19:00 +31°C° 0 mm 2 mps 691 mmHg 26%
    20:00 +29°C° 0 mm 2 mps 690 mmHg 29%
    21:00 +27°C° 0 mm 2 mps 690 mmHg 31%
    22:00 +26°C° 0 mm 2 mps 690 mmHg 32%
    23:00 +25°C° 0 mm 2 mps 690 mmHg 32%
    Show more